| time (UTC) | temp F | wind direction | speed MPH | gust MPH | rain 1hr in | rain 24hr in | rain mn in | humidity % | barometer mb |
| 20260503173805 | 62 | 250 | 4.0 | 12.0 | 0.00 | 0.00 | 0.00 | 37 | 1014.1 |
| 20260503173305 | 62 | 247 | 5.0 | 12.0 | 0.00 | 0.00 | 0.00 | 39 | 1014.1 |
| 20260503172804 | 62 | 275 | 4.0 | 13.0 | 0.00 | 0.00 | 0.00 | 39 | 1014.3 |
| 20260503172305 | 62 | 152 | 4.0 | 13.0 | 0.00 | 0.00 | 0.00 | 39 | 1014.3 |
| 20260503171805 | 62 | 217 | 4.0 | 15.0 | 0.00 | 0.00 | 0.00 | 39 | 1014.3 |
| 20260503171303 | 62 | 170 | 4.0 | 15.0 | 0.00 | 0.00 | 0.00 | 40 | 1014.5 |
| 20260503170759 | 62 | 238 | 4.0 | 10.0 | 0.00 | 0.00 | 0.00 | 40 | 1014.5 |
| 20260503170259 | 62 | 151 | 3.0 | 11.0 | 0.00 | 0.00 | 0.00 | 40 | 1014.7 |
| 20260503150659 | 58 | 132 | 2.0 | 9.0 | 0.00 | 0.00 | 0.00 | 48 | 1016.2 |
| 20260503150159 | 58 | 203 | 1.0 | 5.0 | 0.00 | 0.00 | 0.00 | 52 | 1016.2 |
| 20260503131321 | 44 | 258 | 1.0 | 3.0 | 0.00 | 0.00 | 0.00 | 79 | 1016.4 |
| 20260503130814 | 42 | 215 | 1.0 | 6.0 | 0.00 | 0.00 | 0.00 | 81 | 1016.3 |
| 20260503110330 | 34 | 230 | 2.0 | 5.0 | 0.00 | 0.00 | 0.00 | 90 | 1015.7 |
| 20260503100217 | 34 | 227 | 2.0 | 3.0 | 0.00 | 0.00 | 0.00 | 89 | 1015.1 |
| 20260503081139 | 35 | 218 | 2.0 | 2.0 | 0.00 | 0.00 | 0.00 | 87 | 1015.1 |
| 20260503080640 | 35 | 218 | 2.0 | 2.0 | 0.00 | 0.00 | 0.00 | 87 | 1015.1 |
| 20260503080358 | 35 | 218 | 2.0 | 2.0 | 0.00 | 0.00 | 0.00 | 87 | 1015.1 |
| 20260503072635 | 36 | 218 | 2.0 | 2.0 | 0.00 | 0.00 | 0.00 | 85 | 1014.9 |
| 20260503072134 | 36 | 218 | 2.0 | 2.0 | 0.00 | 0.00 | 0.00 | 85 | 1014.9 |
| 20260503071636 | 36 | 218 | 2.0 | 2.0 | 0.00 | 0.00 | 0.00 | 84 | 1015.0 |
| 20260503071136 | 36 | 218 | 2.0 | 2.0 | 0.00 | 0.00 | 0.00 | 83 | 1015.1 |
| 20260503070637 | 36 | 218 | 1.0 | 2.0 | 0.00 | 0.00 | 0.00 | 82 | 1015.0 |
| 20260503070134 | 37 | 218 | 1.0 | 2.0 | 0.00 | 0.00 | 0.00 | 82 | 1015.0 |
| 20260503060122 | 38 | 218 | 1.0 | 1.0 | 0.00 | 0.00 | 0.00 | 79 | 1015.5 |
| 20260503055121 | 38 | 218 | 1.0 | 1.0 | 0.00 | 0.00 | 0.00 | 80 | 1015.5 |
| 20260503054836 | 38 | 218 | 1.0 | 1.0 | 0.00 | 0.00 | 0.00 | 81 | 1015.6 |
| 20260503054121 | 38 | 218 | 1.0 | 1.0 | 0.00 | 0.00 | 0.00 | 81 | 1015.5 |
| 20260503053618 | 38 | 218 | 1.0 | 1.0 | 0.00 | 0.00 | 0.00 | 81 | 1015.6 |
| 20260503053117 | 38 | 218 | 1.0 | 1.0 | 0.00 | 0.00 | 0.00 | 81 | 1015.5 |
| 20260503052833 | 38 | 218 | 1.0 | 1.0 | 0.00 | 0.00 | 0.00 | 80 | 1015.5 |
| 20260503052114 | 38 | 218 | 1.0 | 1.0 | 0.00 | 0.00 | 0.00 | 80 | 1015.3 |
| 20260503051615 | 38 | 218 | 1.0 | 1.0 | 0.00 | 0.00 | 0.00 | 80 | 1015.3 |
| 20260503051114 | 39 | 218 | 1.0 | 1.0 | 0.00 | 0.00 | 0.00 | 79 | 1015.3 |
| 20260503050611 | 39 | 218 | 1.0 | 1.0 | 0.00 | 0.00 | 0.00 | 78 | 1015.5 |
| 20260503050110 | 39 | 218 | 1.0 | 2.0 | 0.00 | 0.00 | 0.00 | 78 | 1015.5 |
| 20260503045829 | 39 | 218 | 1.0 | 2.0 | 0.00 | 0.00 | 0.00 | 77 | 1015.5 |
| 20260503045108 | 39 | 218 | 1.0 | 2.0 | 0.00 | 0.00 | 0.00 | 76 | 1015.5 |
| 20260503044829 | 39 | 218 | 1.0 | 2.0 | 0.00 | 0.00 | 0.00 | 75 | 1015.5 |
| 20260503044105 | 40 | 218 | 1.0 | 1.0 | 0.00 | 0.00 | 0.00 | 74 | 1015.5 |
| 20260503043603 | 40 | 218 | 1.0 | 1.0 | 0.00 | 0.00 | 0.00 | 73 | 1015.5 |
| 20260503043105 | 40 | 9 | 1.0 | 1.0 | 0.00 | 0.00 | 0.00 | 73 | 1015.5 |
| 20260503042602 | 40 | 9 | 1.0 | 1.0 | 0.00 | 0.00 | 0.00 | 73 | 1015.5 |
| 20260503042556 | 40 | 9 | 0.0 | 1.0 | 0.00 | 0.00 | 0.00 | 73 | 1015.3 |
| 20260503041556 | 41 | 9 | 1.0 | 1.0 | 0.00 | 0.00 | 0.00 | 71 | 1015.3 |
| 20260503041051 | 41 | 9 | 1.0 | 1.0 | 0.00 | 0.00 | 0.00 | 70 | 1015.3 |
| 20260503040545 | 41 | 10 | 0.0 | 1.0 | 0.00 | 0.00 | 0.00 | 69 | 1015.3 |
| 20260503040039 | 41 | 9 | 0.0 | 1.0 | 0.00 | 0.00 | 0.00 | 69 | 1015.5 |
| 20260503035533 | 41 | 9 | 0.0 | 1.0 | 0.00 | 0.00 | 0.00 | 68 | 1015.5 |
| 20260503035027 | 41 | 9 | 0.0 | 1.0 | 0.00 | 0.00 | 0.00 | 68 | 1015.5 |
| 20260503034745 | 41 | 9 | 0.0 | 0.0 | 0.00 | 0.00 | 0.00 | 67 | 1015.6 |
| 20260503034015 | 42 | 10 | 0.0 | 1.0 | 0.00 | 0.00 | 0.00 | 66 | 1015.6 |
| 20260503033509 | 42 | 9 | 0.0 | 1.0 | 0.00 | 0.00 | 0.00 | 66 | 1015.6 |
| 20260503033003 | 42 | 9 | 0.0 | 0.0 | 0.00 | 0.00 | 0.00 | 65 | 1015.6 |
| 20260503032457 | 42 | 9 | 0.0 | 0.0 | 0.00 | 0.00 | 0.00 | 65 | 1015.6 |
| 20260503031950 | 42 | 9 | 0.0 | 0.0 | 0.00 | 0.00 | 0.00 | 65 | 1015.6 |
| 20260503031444 | 42 | 9 | 0.0 | 0.0 | 0.00 | 0.00 | 0.00 | 65 | 1015.6 |
| 20260503030939 | 42 | 9 | 0.0 | 0.0 | 0.00 | 0.00 | 0.00 | 66 | 1015.6 |
| 20260503030432 | 42 | 9 | 0.0 | 0.0 | 0.00 | 0.00 | 0.00 | 67 | 1015.6 |
| 20260503025926 | 42 | 10 | 0.0 | 0.0 | 0.00 | 0.00 | 0.00 | 67 | 1015.6 |
| 20260503025421 | 42 | 9 | 0.0 | 0.0 | 0.00 | 0.00 | 0.00 | 66 | 1015.6 |
| 20260503024915 | 42 | 9 | 0.0 | 0.0 | 0.00 | 0.00 | 0.00 | 66 | 1015.6 |
| 20260503024409 | 42 | 9 | 0.0 | 0.0 | 0.00 | 0.00 | 0.00 | 66 | 1015.6 |
| 20260503023903 | 42 | 9 | 0.0 | 0.0 | 0.00 | 0.00 | 0.00 | 65 | 1015.5 |
| 20260503023357 | 42 | 9 | 0.0 | 0.0 | 0.00 | 0.00 | 0.00 | 65 | 1015.5 |
| 20260503022853 | 43 | 9 | 0.0 | 0.0 | 0.00 | 0.00 | 0.00 | 66 | 1015.5 |
| 20260503022345 | 43 | 9 | 0.0 | 0.0 | 0.00 | 0.00 | 0.00 | 66 | 1015.5 |
| 20260503021839 | 44 | 9 | 0.0 | 1.0 | 0.00 | 0.00 | 0.00 | 66 | 1015.5 |
| 20260503021333 | 44 | 9 | 0.0 | 1.0 | 0.00 | 0.00 | 0.00 | 64 | 1015.5 |
| 20260503020827 | 45 | 9 | 1.0 | 1.0 | 0.00 | 0.00 | 0.00 | 61 | 1015.3 |
| 20260503020321 | 45 | 9 | 1.0 | 1.0 | 0.00 | 0.00 | 0.00 | 60 | 1015.2 |
| 20260503015814 | 45 | 9 | 1.0 | 1.0 | 0.00 | 0.00 | 0.00 | 60 | 1015.2 |
| 20260503015309 | 45 | 9 | 1.0 | 1.0 | 0.00 | 0.00 | 0.00 | 60 | 1015.1 |
| 20260503014803 | 45 | 9 | 1.0 | 2.0 | 0.00 | 0.00 | 0.00 | 59 | 1015.1 |
| 20260503014257 | 45 | 9 | 1.0 | 2.0 | 0.00 | 0.00 | 0.00 | 59 | 1015.0 |
| 20260503014014 | 46 | 9 | 2.0 | 2.0 | 0.00 | 0.00 | 0.00 | 59 | 1015.1 |
| 20260503013245 | 46 | 9 | 2.0 | 2.0 | 0.00 | 0.00 | 0.00 | 59 | 1015.0 |
| 20260503012739 | 46 | 9 | 2.0 | 2.0 | 0.00 | 0.00 | 0.00 | 59 | 1014.9 |
| 20260503012233 | 46 | 10 | 2.0 | 2.0 | 0.00 | 0.00 | 0.00 | 59 | 1014.9 |
| 20260503011727 | 46 | 10 | 1.0 | 2.0 | 0.00 | 0.00 | 0.00 | 58 | 1014.8 |
| 20260503011220 | 46 | 10 | 1.0 | 2.0 | 0.00 | 0.00 | 0.00 | 59 | 1014.8 |
| 20260503010714 | 46 | 9 | 1.0 | 2.0 | 0.00 | 0.00 | 0.00 | 58 | 1014.7 |
| 20260503010209 | 46 | 9 | 1.0 | 1.0 | 0.00 | 0.00 | 0.00 | 58 | 1014.7 |
| 20260503010147 | 46 | 9 | 1.0 | 1.0 | 0.00 | 0.00 | 0.00 | 58 | 1014.6 |
| 20260503005418 | 47 | 9 | 1.0 | 1.0 | 0.00 | 0.00 | 0.00 | 58 | 1014.6 |
| 20260503004650 | 47 | 10 | 1.0 | 2.0 | 0.00 | 0.00 | 0.00 | 57 | 1014.6 |
| 20260503004144 | 47 | 9 | 1.0 | 2.0 | 0.00 | 0.00 | 0.00 | 57 | 1014.6 |
| 20260503003639 | 47 | 9 | 2.0 | 2.0 | 0.00 | 0.00 | 0.00 | 56 | 1014.5 |
| 20260503003357 | 47 | 10 | 2.0 | 3.0 | 0.00 | 0.00 | 0.00 | 57 | 1014.5 |
| 20260503002900 | 47 | 17 | 2.0 | 4.0 | 0.00 | 0.00 | 0.00 | 56 | 1014.5 |
| 20260503002135 | 48 | 13 | 2.0 | 4.0 | 0.00 | 0.00 | 0.00 | 55 | 1014.4 |
| 20260503001632 | 48 | 12 | 2.0 | 4.0 | 0.00 | 0.00 | 0.00 | 55 | 1014.3 |
| 20260503001131 | 48 | 3 | 2.0 | 4.0 | 0.00 | 0.00 | 0.00 | 54 | 1014.3 |
| 20260503000628 | 48 | 3 | 2.0 | 4.0 | 0.00 | 0.00 | 0.00 | 54 | 1014.2 |
| 20260503000345 | 49 | 11 | 2.0 | 4.0 | 0.00 | 0.00 | 0.00 | 54 | 1014.2 |
| 20260502235626 | 49 | 8 | 2.0 | 5.0 | 0.00 | 0.00 | 0.00 | 55 | 1014.2 |
| 20260502235129 | 49 | 358 | 3.0 | 8.0 | 0.00 | 0.00 | 0.00 | 52 | 1014.2 |
| 20260502234853 | 49 | 0 | 3.0 | 8.0 | 0.00 | 0.00 | 0.00 | 51 | 1014.1 |
| 20260502234127 | 49 | 15 | 3.0 | 5.0 | 0.00 | 0.00 | 0.00 | 50 | 1014.1 |
| 20260502233853 | 50 | 20 | 4.0 | 6.0 | 0.00 | 0.00 | 0.00 | 49 | 1014.0 |
| 20260502233359 | 50 | 351 | 3.0 | 9.0 | 0.00 | 0.00 | 0.00 | 50 | 1014.1 |
| 20260502232627 | 50 | 18 | 3.0 | 9.0 | 0.00 | 0.00 | 0.00 | 48 | 1014.0 |
| 20260502232611 | 50 | 33 | 3.0 | 8.0 | 0.00 | 0.00 | 0.00 | 49 | 1014.1 |
| 20260502231626 | 50 | 344 | 3.0 | 7.0 | 0.00 | 0.00 | 0.00 | 49 | 1014.1 |
| 20260502231126 | 50 | 43 | 3.0 | 9.0 | 0.00 | 0.00 | 0.00 | 50 | 1014.0 |
| 20260502230627 | 51 | 11 | 3.0 | 9.0 | 0.00 | 0.00 | 0.00 | 48 | 1014.0 |
| 20260502230121 | 51 | 8 | 2.0 | 6.0 | 0.00 | 0.00 | 0.00 | 49 | 1013.9 |
| 20260502225614 | 51 | 349 | 2.0 | 6.0 | 0.00 | 0.00 | 0.00 | 50 | 1013.9 |
| 20260502225109 | 52 | 332 | 3.0 | 8.0 | 0.00 | 0.00 | 0.00 | 48 | 1013.9 |
| 20260502224603 | 52 | 10 | 3.0 | 8.0 | 0.00 | 0.00 | 0.00 | 48 | 1013.9 |
| 20260502224057 | 51 | 10 | 3.0 | 6.0 | 0.00 | 0.00 | 0.00 | 47 | 1013.8 |
| 20260502223551 | 51 | 7 | 3.0 | 6.0 | 0.00 | 0.00 | 0.00 | 48 | 1013.8 |
| 20260502223312 | 51 | 337 | 3.0 | 7.0 | 0.00 | 0.00 | 0.00 | 47 | 1013.8 |
| 20260502222540 | 51 | 325 | 4.0 | 10.0 | 0.00 | 0.00 | 0.00 | 46 | 1013.8 |
| 20260502222032 | 51 | 358 | 4.0 | 10.0 | 0.00 | 0.00 | 0.00 | 46 | 1013.9 |
| 20260502221527 | 51 | 43 | 3.0 | 8.0 | 0.00 | 0.00 | 0.00 | 47 | 1013.7 |
| 20260502221244 | 51 | 36 | 3.0 | 7.0 | 0.00 | 0.00 | 0.00 | 47 | 1013.8 |
| 20260502220515 | 51 | 335 | 4.0 | 7.0 | 0.00 | 0.00 | 0.00 | 46 | 1013.7 |
| 20260502220010 | 52 | 17 | 4.0 | 7.0 | 0.00 | 0.00 | 0.00 | 46 | 1013.7 |
| 20260502215503 | 51 | 339 | 4.0 | 7.0 | 0.00 | 0.00 | 0.00 | 47 | 1013.7 |
| 20260502215440 | 51 | 10 | 4.0 | 6.0 | 0.00 | 0.00 | 0.00 | 47 | 1013.7 |
| 20260502214450 | 51 | 33 | 4.0 | 11.0 | 0.00 | 0.00 | 0.00 | 47 | 1013.6 |
| 20260502213945 | 51 | 285 | 3.0 | 11.0 | 0.00 | 0.00 | 0.00 | 46 | 1013.6 |
| 20260502213438 | 51 | 10 | 3.0 | 11.0 | 0.00 | 0.00 | 0.00 | 47 | 1013.6 |
| 20260502212933 | 52 | 334 | 3.0 | 11.0 | 0.00 | 0.00 | 0.00 | 46 | 1013.7 |
| 20260502212427 | 52 | 348 | 3.0 | 10.0 | 0.00 | 0.00 | 0.00 | 46 | 1013.5 |
| 20260502211921 | 53 | 349 | 2.0 | 10.0 | 0.00 | 0.00 | 0.00 | 46 | 1013.5 |
| 20260502211643 | 52 | 12 | 2.0 | 4.0 | 0.00 | 0.00 | 0.00 | 49 | 1013.4 |
| 20260502210924 | 51 | 17 | 2.0 | 6.0 | 0.00 | 0.00 | 0.00 | 47 | 1013.4 |
| 20260502210421 | 52 | 23 | 3.0 | 6.0 | 0.00 | 0.00 | 0.00 | 47 | 1013.5 |
| 20260502210146 | 52 | 342 | 3.0 | 7.0 | 0.00 | 0.00 | 0.00 | 46 | 1013.4 |
| 20260502205423 | 52 | 350 | 4.0 | 10.0 | 0.00 | 0.00 | 0.00 | 44 | 1013.4 |
| 20260502204921 | 53 | 24 | 4.0 | 10.0 | 0.00 | 0.00 | 0.00 | 45 | 1013.4 |
| 20260502204422 | 53 | 6 | 4.0 | 8.0 | 0.00 | 0.00 | 0.00 | 45 | 1013.4 |
| 20260502203921 | 53 | 26 | 3.0 | 8.0 | 0.00 | 0.00 | 0.00 | 46 | 1013.4 |
| 20260502203422 | 54 | 10 | 3.0 | 7.0 | 0.00 | 0.00 | 0.00 | 44 | 1013.5 |
| 20260502202921 | 54 | 1 | 3.0 | 7.0 | 0.00 | 0.00 | 0.00 | 46 | 1013.5 |
| 20260502202421 | 54 | 12 | 3.0 | 7.0 | 0.00 | 0.00 | 0.00 | 43 | 1013.4 |
| 20260502201923 | 53 | 14 | 2.0 | 6.0 | 0.00 | 0.00 | 0.00 | 45 | 1013.6 |
| 20260502201421 | 52 | 243 | 4.0 | 11.0 | 0.00 | 0.00 | 0.00 | 45 | 1013.6 |
| 20260502200921 | 52 | 337 | 3.0 | 11.0 | 0.00 | 0.00 | 0.00 | 44 | 1013.7 |
| 20260502200422 | 52 | 341 | 2.0 | 11.0 | 0.00 | 0.00 | 0.00 | 47 | 1013.7 |
| 20260502195923 | 51 | 3 | 3.0 | 7.0 | 0.00 | 0.00 | 0.00 | 46 | 1013.7 |
| 20260502195421 | 52 | 1 | 5.0 | 11.0 | 0.00 | 0.00 | 0.00 | 44 | 1013.7 |
| 20260502195143 | 53 | 0 | 5.0 | 11.0 | 0.00 | 0.00 | 0.00 | 43 | 1013.9 |
| 20260502194421 | 54 | 48 | 3.0 | 11.0 | 0.00 | 0.00 | 0.00 | 42 | 1013.8 |
| 20260502193921 | 54 | 347 | 3.0 | 9.0 | 0.00 | 0.00 | 0.00 | 45 | 1013.8 |
| 20260502193423 | 54 | 15 | 4.0 | 9.0 | 0.00 | 0.00 | 0.00 | 45 | 1013.7 |
| 20260502192923 | 53 | 301 | 4.0 | 8.0 | 0.00 | 0.00 | 0.00 | 44 | 1013.8 |
| 20260502192418 | 53 | 343 | 3.0 | 6.0 | 0.00 | 0.00 | 0.00 | 44 | 1013.8 |
| 20260502192139 | 54 | 26 | 3.0 | 8.0 | 0.00 | 0.00 | 0.00 | 45 | 1013.8 |
| 20260502191417 | 53 | 333 | 4.0 | 8.0 | 0.00 | 0.00 | 0.00 | 46 | 1013.9 |
| 20260502190918 | 52 | 343 | 4.0 | 11.0 | 0.00 | 0.00 | 0.00 | 44 | 1013.9 |
| 20260502190643 | 53 | 291 | 5.0 | 11.0 | 0.00 | 0.00 | 0.00 | 43 | 1014.0 |
| 20260502185919 | 53 | 344 | 5.0 | 11.0 | 0.00 | 0.00 | 0.00 | 44 | 1014.1 |
| 20260502185419 | 54 | 29 | 4.0 | 9.0 | 0.00 | 0.00 | 0.00 | 45 | 1014.0 |
| 20260502184918 | 53 | 5 | 4.0 | 11.0 | 0.00 | 0.00 | 0.00 | 43 | 1014.2 |
| 20260502184637 | 53 | 6 | 5.0 | 15.0 | 0.00 | 0.00 | 0.00 | 42 | 1014.1 |
| 20260502183920 | 53 | 320 | 5.0 | 15.0 | 0.00 | 0.00 | 0.00 | 44 | 1014.2 |
| 20260502183629 | 53 | 16 | 4.0 | 13.0 | 0.00 | 0.00 | 0.00 | 42 | 1014.1 |
| 20260502183511 | 53 | 5 | 5.0 | 13.0 | 0.00 | 0.00 | 0.00 | 42 | 1014.1 |
| 20260502182637 | 53 | 333 | 4.0 | 9.0 | 0.00 | 0.00 | 0.00 | 45 | 1014.1 |
| 20260502181918 | 53 | 294 | 5.0 | 9.0 | 0.00 | 0.00 | 0.00 | 43 | 1014.2 |
| 20260502181419 | 53 | 22 | 5.0 | 11.0 | 0.00 | 0.00 | 0.00 | 43 | 1014.1 |
| 20260502180918 | 53 | 26 | 4.0 | 11.0 | 0.00 | 0.00 | 0.00 | 42 | 1014.1 |
| 20260502180419 | 53 | 44 | 4.0 | 8.0 | 0.00 | 0.00 | 0.00 | 45 | 1014.2 |